Portada
METAR-TAF:

METAR-TAF

Aeropuertos :

Aeropuerto de Castellón-Costa Azahar

Castellón de la Plana, España

latitud: 40-12-35N, longitud: 0-04-11E, altitud: 360 m

Observación

El informe se hizo hace 36 minutos, a las 18:30 UTC
Viento 4 kt del oeste-suroeste, variando entre sur-suroeste y oeste
Temperatura 16°C
Humedad 88%
Presión 1015 hPa
Visibilidad 10 km o más
Cielo nuboso a una altura de 6000 ft

METAR: LECH 241830Z AUTO 24004KT 210V280 9999 BKN060 16/14 Q1015

Hora: 21:06 (19:06 UTC)


TAF: falta

Observaciones y pronósticos meteorológicos de más de 4000 aeropuertos (mensajes METAR y TAF).

Los puntos amarillos y rojos representan las estaciones disponibles.

Ponga el ratón en el punto deseado para ver el nombre de la estación.

Haga clic para ver las observaciones y los pronósticos meteorológicos.

Para cambiar el mapa : haga clic en los botones verdes con una cruz de color negro para hacer un zoom, en el botón verde con un guión para alejar o en las flechas verdes para mapas adyacentes.


METAR-TAF: